ROMMA est une association bénévole à but non lucratif. Votre soutien est indispensable : ADHERER à ROMMA ou FAIRE un DON

Voiron - (38, Isère)

Voironnais (300 m)   Longitude: 05° 35' E   Latitude: 45° 23' N Station partenaire n°109
 

Détail journalier du     <<     >>

Température Precipitation Humidité Pression Vent Dir Rafale Dir. rafale Ensol.
Heure (°C) (mm) (%) (hPa) (km/h) (km/h) (min)
01:00 10.307210243SE15NNO0
02:00 9.107710242ESE8NNO0
03:00 7.907910243SE15NNO0
04:00 7.408210242E6NO0
05:00 8.707810243N15NNO0
06:00 8.907710246NO13NNO0
07:00 8.607910246NNO16NNO0
08:00 8.5080102411NNO23N0
09:00 8.6080102410N21NNO0
10:00 8.6080102411NNO24N0
11:00 9.307710249N23NNE0
12:00 11.407010248NE19NNO0
13:00 12.306610237ESE31NNO0
14:00 13.405710226N31NNE0
15:00 14.0045102225NNO55N60
16:00 13.4044102130NNO55NNO60
17:00 12.4046102135NNO61N60
18:00 12.1044102231NNO53N60
19:00 11.1043102315NNO37NNO30
20:00 10.1045102313N32N0
21:00 9.7046102415N42N0
22:00 9.4043102419N44N0
23:00 9.2043102519N52NNO0
minuit 8.9045102522N63N0

Graphique du 25-03-2019

 

Serveur OMMA